Location: Newark
(33.6333°S, 78.8500°W)
Time: 20:56:24
(UTC+00:00)

Courier 1B - Pass Details

Date: 28 September 2019
Orbit: 962 x 1209 km, 28.3° (Epoch: 15 October)

Event Time Altitude Azimuth Distance (km) Brightness Sun altitude
Rises 00:38:18 0° 269° (W) 4,064 12.3 -17.9°
Reaches altitude 10° 00:41:25 10° 276° (W) 3,070 11.1 -18.5°
Maximum altitude 00:48:15 37° 340° (NNW) 1,665 8.7 -19.9°
Enters shadow 00:51:58 23° 30° (NNE) 2,142 8.9 -20.6°
Drops below altitude 10° 00:54:42 10° 45° (NE) 2,896 - -21.2°
Sets 00:57:33 0° 53° (NE) 3,809 - -21.7°
